This is the latest recevied weather packets stored in our database for station/object F4HUO-10. If no packets are shown the sender has not sent any weather packets the latest 10 day(s).
| Time | Temp. | Humidity | Pressure | Rain* | Wind** | Luminosity | Snow |
|---|---|---|---|---|---|---|---|
| 1777900056 | 20.56° C | 55% | 1001 hPa | - | - | - | - |
| 1777896455 | 21.11° C | 54% | 1001.3 hPa | - | - | - | - |
| 1777892853 | 21.67° C | 54% | 1001.7 hPa | - | - | - | - |
| 1777889260 | 21.67° C | 54% | 1001.8 hPa | - | - | - | - |
| 1777885658 | 21.67° C | 54% | 1001.9 hPa | - | - | - | - |
| 1777882056 | 21.67° C | 54% | 1001.9 hPa | - | - | - | - |
| 1777878455 | 21.67° C | 54% | 1001.5 hPa | - | - | - | - |
| 1777874854 | 21.67° C | 53% | 1001.1 hPa | - | - | - | - |
| 1777871255 | 21.67° C | 53% | 1000.7 hPa | - | - | - | - |
| 1777867659 | 21.67° C | 53% | 1000.6 hPa | - | - | - | - |
| 1777864058 | 21.67° C | 53% | 1001.1 hPa | - | - | - | - |
| 1777860456 | 21.67° C | 54% | 1001.1 hPa | - | - | - | - |
| 1777856854 | 21.67° C | 54% | 1001.1 hPa | - | - | - | - |
| 1777853253 | 21.67° C | 54% | 1001.3 hPa | - | - | - | - |
| 1777849651 | 21.67° C | 54% | 1001.3 hPa | - | - | - | - |
| 1777846057 | 21.67° C | 54% | 1001.2 hPa | - | - | - | - |
| 1777842456 | 21.67° C | 55% | 1001.3 hPa | - | - | - | - |
| 1777838854 | 21.67° C | 56% | 1000.5 hPa | - | - | - | - |
| 1777835253 | 20.56° C | 56% | 1000.2 hPa | - | - | - | - |
| 1777831652 | 21.67° C | 57% | 999.6 hPa | - | - | - | - |
| 1777828050 | 21.67° C | 58% | 999.5 hPa | - | - | - | - |
| 1777824457 | 21.11° C | 54% | 999.7 hPa | - | - | - | - |
| 1777820856 | 21.11° C | 56% | 999.8 hPa | - | - | - | - |
| 1777817254 | 20.56° C | 58% | 1000.3 hPa | - | - | - | - |
| 1777813653 | 21.11° C | 55% | 1000.4 hPa | - | - | - | - |
* Rain since midnight (hover to see other rain measurements)
** Current wind speed in m/s (hover to see current wind gust speed)